Moffett NAS, CA

8:38 AM PDT on June 23, 2017 (GMT -0700)
Moffett Federal Air Field

Weather History for KNUQ - September, 2012

Change the Weather History Date:

Wednesday, September 26, 2012

  Actual Average Record
Temperature  
Mean Temperature 64 °F 67 °F  
Max Temperature 71 °F 77 °F 95 °F (1999)
Min Temperature 57 °F 57 °F 42 °F (1948)
Degree Days  
Heating Degree Days 1    
Month to date heating degree days 27  
Since 1 July heating degree days 44  
Cooling Degree Days 0    
Month to date cooling degree days 15  
Year to date cooling degree days 249  
Growing Degree Days 14 (Base 50)    
Moisture  
Dew Point 54 °F    
Average Humidity 72    
Maximum Humidity 87    
Minimum Humidity 57    
Precipitation  
Precipitation 0.00 in 0.01 in 0.36 in (1986)
Month to date precipitation T 0.14  
Year to date precipitation 5.51 9.80  
Since 1 July precipitation T  
Sea Level Pressure  
Sea Level Pressure 29.90 in    
Wind  
Wind Speed 4 mph (NNW)    
Max Wind Speed 12 mph    
Max Gust Speed 15 mph    
Visibility 8 miles    
Events      
T = Trace of Precipitation, MM = Missing Value Source: NWS Daily Summary

Daily Weather History Graph

Daily Weather History Graph

Search for Another Location

Airport or City:

Trip Planner

Search our weather history database for the weather conditions in past years. The results will help you decide how hot, cold, wet, or windy it might be!

Date:

Astronomy

Sep. 26, 2012 Rise Set
Actual Time 6:59 AM PDT 6:58 PM PDT
Civil Twilight 6:33 AM PDT 7:24 PM PDT
Nautical Twilight 6:03 AM PDT 7:54 PM PDT
Astronomical Twilight 5:32 AM PDT 8:24 PM PDT
Moon 4:57 PM PDT (9/26) 3:35 AM PDT (9/26)
Length of Visible Light 12h 50m
Length of Day
11h 58m
Waxing Gibbous, 88% of the Moon is Illuminated
Sep 26
Waxing Gibbous
Sep 29
Full
Oct 8
Last Quarter
Oct 15
New
Oct 21
First Quarter

Hourly Weather History & Observations

Time (PDT) Temp. Dew Point Humidity Pressure Visibility Wind Dir Wind Speed Gust Speed Precip Events Conditions
12:16 AM 57.2 °F 51.8 °F 82% 29.91 in 9.0 mi Calm Calm - N/A   Scattered Clouds
12:56 AM 57.0 °F 53.1 °F 87% 29.91 in 9.0 mi Calm Calm - N/A   Scattered Clouds
1:05 AM 57.2 °F 53.6 °F 88% 29.90 in 9.0 mi Calm Calm - N/A   Mostly Cloudy
1:56 AM 57.9 °F 54.0 °F 87% 29.91 in 8.0 mi Calm Calm - N/A   Overcast
2:56 AM 59.0 °F 54.0 °F 83% 29.90 in 8.0 mi Calm Calm - N/A   Overcast
3:56 AM 57.9 °F 54.0 °F 87% 29.90 in 7.0 mi Calm Calm - N/A   Overcast
4:56 AM 57.9 °F 54.0 °F 87% 29.90 in 8.0 mi Calm Calm - N/A   Overcast
5:56 AM 59.0 °F 54.0 °F 83% 29.91 in 7.0 mi Calm Calm - N/A   Overcast
6:56 AM 59.0 °F 54.0 °F 83% 29.92 in 7.0 mi Calm Calm - N/A   Overcast
7:25 AM 59.0 °F 53.6 °F 82% 29.92 in 6.0 mi NNE 3.5 mph - N/A   Haze
7:56 AM 59.0 °F 54.0 °F 83% 29.93 in 7.0 mi NE 3.5 mph - N/A   Overcast
8:56 AM 60.1 °F 53.1 °F 78% 29.93 in 6.0 mi SE 4.6 mph - N/A   Haze
9:56 AM 61.0 °F 53.1 °F 75% 29.92 in 6.0 mi Calm Calm - N/A   Haze
10:40 AM 62.6 °F 53.6 °F 72% 29.91 in 6.0 mi Calm Calm - N/A   Haze
10:56 AM 63.0 °F 54.0 °F 72% 29.92 in 6.0 mi Calm Calm - N/A   Haze
11:56 AM 66.0 °F 53.1 °F 63% 29.91 in 8.0 mi North 6.9 mph - N/A   Clear
12:56 PM 68.0 °F 54.0 °F 61% 29.89 in 7.0 mi North 4.6 mph - N/A   Clear
1:56 PM 69.1 °F 55.0 °F 61% 29.87 in 9.0 mi North 8.1 mph - N/A   Clear
2:56 PM 71.1 °F 55.9 °F 59% 29.86 in 10.0 mi North 6.9 mph - N/A   Clear
3:56 PM 70.0 °F 55.0 °F 59% 29.85 in 10.0 mi NNW 8.1 mph - N/A   Clear
4:56 PM 70.0 °F 55.9 °F 61% 29.85 in 10.0 mi NNW 8.1 mph - N/A   Clear
5:56 PM 66.0 °F 55.9 °F 70% 29.85 in 10.0 mi NNW 8.1 mph - N/A   Clear
6:56 PM 63.0 °F 55.9 °F 78% 29.86 in 10.0 mi NW 8.1 mph - N/A   Clear
7:56 PM 61.0 °F 55.0 °F 81% 29.88 in 10.0 mi NW 5.8 mph - N/A   Clear
8:56 PM 60.1 °F 55.0 °F 83% 29.90 in 10.0 mi NNW 4.6 mph - N/A   Clear
9:56 PM 59.0 °F 55.0 °F 87% 29.91 in 10.0 mi NNW 4.6 mph - N/A   Clear
10:41 PM 59.0 °F 53.6 °F 82% 29.90 in 10.0 mi Calm Calm - N/A   Partly Cloudy
10:56 PM 59.0 °F 54.0 °F 83% 29.91 in 10.0 mi West 3.5 mph - N/A   Partly Cloudy
11:56 PM 57.9 °F 54.0 °F 87% 29.91 in 10.0 mi West 3.5 mph - N/A   Clear